TimeCDT,TemperatureF,Dew PointF,Humidity,Sea Level PressureIn,VisibilityMPH,Wind Direction,Wind SpeedMPH,Gust SpeedMPH,PrecipitationIn,Events,Conditions,WindDirDegrees,DateUTC
12:52 AM,69.1,45.0,42,29.74,10.0,South,17.3,-,N/A,,Clear,190,2013-03-16 05:52:00
1:52 AM,66.9,45.0,45,29.74,10.0,SSW,17.3,-,N/A,,Clear,200,2013-03-16 06:52:00
2:52 AM,66.9,45.0,45,29.73,10.0,SSW,17.3,-,N/A,,Clear,200,2013-03-16 07:52:00
3:52 AM,64.9,45.0,48,29.71,10.0,SSW,15.0,-,N/A,,Clear,200,2013-03-16 08:52:00
4:52 AM,64.9,44.1,47,29.69,10.0,SSW,13.8,-,N/A,,Clear,200,2013-03-16 09:52:00
5:52 AM,63.0,43.0,48,29.70,10.0,South,12.7,-,N/A,,Clear,190,2013-03-16 10:52:00
6:52 AM,57.9,44.1,60,29.71,10.0,South,10.4,-,N/A,,Clear,180,2013-03-16 11:52:00
7:52 AM,55.0,43.0,64,29.73,10.0,South,8.1,-,N/A,,Clear,170,2013-03-16 12:52:00
8:52 AM,61.0,44.1,54,29.72,10.0,South,15.0,-,N/A,,Clear,180,2013-03-16 13:52:00
9:52 AM,66.2,46.4,49,29.74,10.0,South,18.4,27.6,N/A,,Clear,190,2013-03-16 14:52:00
10:52 AM,71.1,46.9,42,29.71,10.0,SSW,20.7,26.5,N/A,,Clear,210,2013-03-16 15:52:00
11:52 AM,75.0,46.0,36,29.70,10.0,SSW,18.4,26.5,N/A,,Clear,200,2013-03-16 16:52:00
12:52 PM,79.0,46.0,31,29.70,10.0,SSW,18.4,24.2,N/A,,Clear,210,2013-03-16 17:52:00
1:52 PM,81.0,46.0,29,29.67,10.0,South,6.9,-,N/A,,Clear,190,2013-03-16 18:52:00
2:52 PM,84.2,42.8,23,29.67,10.0,South,11.5,21.9,N/A,,Clear,180,2013-03-16 19:52:00
3:52 PM,84.9,42.1,22,29.60,10.0,SSW,9.2,-,N/A,,Clear,200,2013-03-16 20:52:00
4:52 PM,87.1,41.0,20,29.59,10.0,South,10.4,-,N/A,,Clear,190,2013-03-16 21:52:00
5:52 PM,87.1,39.0,18,29.58,10.0,WSW,6.9,-,N/A,,Clear,240,2013-03-16 22:52:00
6:52 PM,82.9,42.1,24,29.59,10.0,NW,15.0,18.4,N/A,,Clear,310,2013-03-16 23:52:00
7:52 PM,73.9,48.0,40,29.61,10.0,NNW,13.8,-,N/A,,Clear,340,2013-03-17 00:52:00
8:52 PM,66.0,46.9,50,29.64,10.0,North,26.5,35.7,N/A,,Clear,10,2013-03-17 01:52:00
9:52 PM,61.0,44.1,54,29.67,10.0,North,19.6,-,N/A,,Clear,350,2013-03-17 02:52:00
10:52 PM,59.0,43.0,55,29.68,10.0,North,19.6,-,N/A,,Clear,360,2013-03-17 03:52:00
11:52 PM,57.0,42.1,57,29.68,10.0,North,20.7,-,N/A,,Clear,10,2013-03-17 04:52:00